This is the latest recevied weather packets stored in our database for station/object N3OZD-10. If no packets are shown the sender has not sent any weather packets the latest 10 day(s).
| Time | Temp. | Humidity | Pressure | Rain* | Wind** | Luminosity | Snow |
|---|---|---|---|---|---|---|---|
| 1777765650 | 12.22° C | 47% | 1012.1 hPa | 0 mm | - | - | - |
| 1777765349 | 12.22° C | 46% | 1012.1 hPa | 0 mm | - | - | - |
| 1777765049 | 12.22° C | 46% | 1012 hPa | 0 mm | - | - | - |
| 1777764749 | 12.22° C | 43% | 1011.9 hPa | 0 mm | - | - | - |
| 1777764449 | 12.78° C | 44% | 1012 hPa | 0 mm | - | - | - |
| 1777764149 | 12.78° C | 43% | 1011.9 hPa | 0 mm | - | - | - |
| 1777763855 | 12.78° C | 44% | 1011.9 hPa | 0 mm | - | - | - |
| 1777763549 | 12.22° C | 43% | 1011.9 hPa | 0 mm | - | - | - |
| 1777763249 | 12.78° C | 43% | 1011.9 hPa | 0 mm | - | - | - |
| 1777762949 | 12.78° C | 43% | 1011.8 hPa | 0 mm | - | - | - |
| 1777762652 | 12.78° C | 45% | 1011.8 hPa | 0 mm | - | - | - |
| 1777762349 | 12.78° C | 42% | 1011.7 hPa | 0 mm | - | - | - |
| 1777762049 | 12.78° C | 42% | 1011.7 hPa | 0 mm | - | - | - |
| 1777761751 | 12.78° C | 44% | 1011.7 hPa | 0 mm | - | - | - |
| 1777761449 | 13.33° C | 44% | 1011.7 hPa | 0 mm | - | - | - |
| 1777761150 | 13.33° C | 43% | 1011.7 hPa | 0 mm | - | - | - |
| 1777760849 | 13.33° C | 42% | 1011.7 hPa | 0 mm | - | - | - |
| 1777760550 | 13.33° C | 41% | 1011.7 hPa | 0 mm | - | - | - |
| 1777760251 | 13.33° C | 39% | 1011.7 hPa | 0 mm | - | - | - |
| 1777759949 | 13.33° C | 41% | 1011.7 hPa | 0 mm | - | - | - |
| 1777759649 | 13.33° C | 42% | 1011.7 hPa | 0 mm | - | - | - |
| 1777759349 | 13.89° C | 41% | 1011.6 hPa | 0 mm | - | - | - |
| 1777759049 | 13.33° C | 42% | 1011.7 hPa | 0 mm | - | - | - |
| 1777758749 | 13.33° C | 39% | 1011.6 hPa | 0 mm | - | - | - |
| 1777758451 | 13.89° C | 42% | 1011.7 hPa | 0 mm | - | - | - |
* Rain latest hour (hover to see other rain measurements)
** Current wind speed in m/s (hover to see current wind gust speed)